DW6145 Weather Reports


Display with metric or nautical units.
time (UTC)temp
F
wind
direction
speed
MPH
gust
MPH
rain 1hr
in
rain 24hr
in
rain mn
in
humidity
%
barometer
mb
20260505022951 55 0 0.0 0.0 0.00 0.00 0.00 79 467.9
20260505021023 55 0 0.0 0.0 0.00 0.00 0.00 79 467.9
20260505020023 55 0 0.0 0.0 0.00 0.00 0.00 79 463.2
20260505015022 55 0 0.0 0.0 0.00 0.00 0.00 78 473.2
20260505014023 56 0 0.0 0.0 0.00 0.00 0.00 78 468.8
20260505013021 56 0 0.0 0.0 0.00 0.00 0.00 77 468.0
20260505012021 56 0 0.0 0.0 0.00 0.00 0.00 78 468.0
20260505011018 56 0 0.0 0.0 0.00 0.00 0.00 78 468.0
20260505010014 56 0 0.0 0.0 0.00 0.00 0.00 77 468.0
20260505005013 56 0 0.0 0.0 0.00 0.00 0.00 77 468.0
20260505004015 56 0 0.0 2.0 0.00 0.00 0.00 79 465.1
20260505003011 56 0 0.0 3.0 0.00 0.00 0.00 80 484.0
20260505002012 56 0 0.0 0.0 0.00 0.00 0.00 81 465.6
20260505001006 56 0 1.0 4.0 0.00 0.00 0.00 81 499.3
20260505000009 57 0 1.0 3.0 0.00 0.00 0.00 81 484.3
20260504235004 57 0 0.0 0.0 0.00 0.00 0.00 82 467.8
20260504234005 57 0 0.0 0.0 0.00 0.00 0.00 82 483.7
20260504233003 57 0 1.0 5.0 0.00 0.00 0.00 82 529.0
20260504232003 57 94 1.0 4.0 0.00 0.00 0.00 81 526.7
20260504231004 58 105 1.0 4.0 0.00 0.00 0.00 81 484.2
20260504230449 58 161 0.0 0.0 0.00 0.00 0.00 80 956.9
20260504225002 58 161 0.0 0.0 0.00 0.00 0.00 80 571.0
20260504224002 58 161 0.0 0.0 0.00 0.00 0.00 80 462.8
20260504223002 58 161 0.0 1.0 0.00 0.00 0.00 79 417.7
20260504222002 59 161 0.0 0.0 0.00 0.00 0.00 78 484.6
20260504221438 59 161 0.0 0.0 0.00 0.00 0.00 77 441.4
20260504220001 60 161 0.0 0.0 0.00 0.00 0.00 76 468.2
20260504214954 60 161 0.0 0.0 0.00 0.00 0.00 75 504.2
20260504214437 61 161 0.0 0.0 0.00 0.00 0.00 74 457.9
20260504213439 61 161 0.0 0.0 0.00 0.00 0.00 73 496.8
20260504211951 61 161 0.0 0.0 0.00 0.00 0.00 73 467.9
20260504210949 61 161 0.0 0.0 0.00 0.00 0.00 72 432.8
20260504205950 62 161 0.0 0.0 0.00 0.00 0.00 71 424.8
20260504204947 62 161 0.0 0.0 0.00 0.00 0.00 71 466.4
20260504204420 62 161 0.0 0.0 0.00 0.00 0.00 71 463.3
20260504202945 62 161 0.0 0.0 0.00 0.00 0.00 70 471.7
20260504201942 62 161 0.0 0.0 0.00 0.00 0.00 71 576.9
20260504200942 62 161 0.0 0.0 0.00 0.00 0.00 71 918.3
20260504195942 63 161 0.0 0.0 0.00 0.00 0.00 71 468.0
20260504195424 63 161 0.0 0.0 0.00 0.00 0.00 71 468.0
20260504194915 63 161 0.0 0.0 0.00 0.00 0.00 71 468.0
20260504192939 63 161 0.0 0.0 0.00 0.00 0.00 72 447.4
20260504191934 64 161 0.0 0.0 0.00 0.00 0.00 72 466.7
20260504190932 64 161 0.0 0.0 0.00 0.00 0.00 71 446.5
20260504185933 65 161 0.0 0.0 0.00 0.00 0.00 69 484.4
20260504184930 65 161 0.0 0.0 0.00 0.00 0.00 68 463.4
20260504184416 66 161 0.0 0.0 0.00 0.00 0.00 68 469.0
20260504183911 66 161 0.0 0.0 0.00 0.00 0.00 67 468.4
20260504182412 66 161 0.0 0.0 0.00 0.00 0.00 67 608.0
20260504180929 66 161 1.0 5.0 0.00 0.00 0.00 66 634.6
20260504175926 67 161 2.0 7.0 0.00 0.00 0.00 65 492.5
20260504175403 67 162 3.0 8.0 0.00 0.00 0.00 64 417.9
20260504174400 68 158 2.0 8.0 0.00 0.00 0.00 64 440.7
20260504173352 69 161 2.0 6.0 0.00 0.00 0.00 64 714.7
20260504172357 69 145 2.0 8.0 0.00 0.00 0.00 64 612.2
20260504170916 68 148 3.0 9.0 0.00 0.00 0.00 67 468.1
20260504140858 72 214 7.0 13.0 0.00 0.00 0.00 53 467.2
20260504100321 74 198 2.0 9.0 0.00 0.00 0.00 37 737.2
20260504081832 71 128 1.0 5.0 0.00 0.00 0.00 41 578.6
20260504080831 71 122 0.0 3.0 0.00 0.00 0.00 41 615.3
20260504050242 55 0 0.0 0.0 0.00 0.00 0.00 75 630.2
20260504044802 54 0 0.0 3.0 0.00 0.00 0.00 75 455.9
20260504043756 54 0 0.0 0.0 0.00 0.00 0.00 74 465.7
20260504042757 54 0 0.0 0.0 0.00 0.00 0.00 75 484.3
20260504041759 53 0 0.0 0.0 0.00 0.00 0.00 75 931.1
20260504040754 54 0 0.0 0.0 0.00 0.00 0.00 74 813.5
20260504035754 54 0 0.0 0.0 0.00 0.00 0.00 74 632.7
20260504034755 54 0 0.0 0.0 0.00 0.00 0.00 74 471.4
20260504033749 53 0 0.0 0.0 0.00 0.00 0.00 74 483.8
20260504032748 53 0 0.0 0.0 0.00 0.00 0.00 74 882.2
20260504031750 54 0 0.0 0.0 0.00 0.00 0.00 74 468.0
20260504031221 54 0 0.0 0.0 0.00 0.00 0.00 72 467.7
20260504025745 54 0 0.0 0.0 0.00 0.00 0.00 72 552.9
20260504024746 54 0 0.0 4.0 0.00 0.00 0.00 72 913.3
20260504023742 54 108 0.0 0.0 0.00 0.00 0.00 72 490.3